EW8275 Weather Reports


Display with metric or nautical units.
time (UTC)temp
F
wind
direction
speed
MPH
gust
MPH
rain 1hr
in
rain 24hr
in
rain mn
in
humidity
%
barometer
mb
20260510125036 64 32 5.0 19.0 0.00 0.00 0.00 56 1013.2
20260510124533 64 76 6.0 12.0 0.00 0.00 0.00 55 1013.4
20260510124041 64 304 6.0 15.0 0.00 0.00 0.00 54 1013.5
20260510123548 64 360 7.0 15.0 0.00 0.00 0.00 54 1013.5
20260510123030 65 24 5.0 13.0 0.00 0.00 0.00 53 1013.6
20260510122604 65 11 5.0 13.0 0.00 0.00 0.00 54 1013.6
20260510122054 65 56 6.0 13.0 0.00 0.00 0.00 54 1013.7
20260510121543 65 343 7.0 15.0 0.00 0.00 0.00 54 1013.7
20260510121046 64 49 6.0 15.0 0.00 0.00 0.00 55 1013.7
20260510120548 65 26 4.0 13.0 0.00 0.00 0.00 54 1013.8
20260510120036 64 101 7.0 13.0 0.00 0.00 0.00 54 1013.8
20260510115530 65 5 4.0 10.0 0.00 0.00 0.00 53 1013.8
20260510115037 65 323 4.0 10.0 0.00 0.00 0.00 54 1013.9
20260510114556 64 5 5.0 14.0 0.00 0.00 0.00 55 1014.0
20260510114038 64 19 6.0 14.0 0.00 0.00 0.00 55 1014.0
20260510113549 65 180 5.0 12.0 0.00 0.00 0.00 57 1014.0
20260510113043 65 355 5.0 12.0 0.00 0.00 0.00 56 1014.0
20260510112546 65 26 5.0 14.0 0.00 0.00 0.00 58 1014.1
20260510112036 64 14 7.0 14.0 0.00 0.00 0.00 57 1014.1
20260510111535 64 12 5.0 11.0 0.00 0.00 0.00 59 1014.1
20260510111055 63 24 4.0 13.0 0.00 0.00 0.00 62 1014.2
20260510110539 62 22 6.0 14.0 0.00 0.00 0.00 62 1014.3
20260510110026 63 13 7.0 14.0 0.00 0.00 0.00 61 1014.4
20260510105550 62 360 5.0 12.0 0.00 0.00 0.00 60 1014.3
20260510105042 63 282 5.0 12.0 0.00 0.00 0.00 60 1014.4
20260510104537 64 18 6.0 12.0 0.00 0.00 0.00 59 1014.4
20260510104056 63 24 5.0 12.0 0.00 0.00 0.00 59 1014.5
20260510103533 62 340 6.0 12.0 0.00 0.00 0.00 61 1014.5
20260510103037 62 336 6.0 11.0 0.00 0.00 0.00 61 1014.6
20260510102602 63 11 6.0 11.0 0.00 0.00 0.00 60 1014.5
20260510102046 64 28 5.0 11.0 0.00 0.00 0.00 61 1014.5
20260510101542 63 5 4.0 9.0 0.00 0.00 0.00 63 1014.5
20260510101104 63 287 4.0 10.0 0.00 0.00 0.00 61 1014.6
20260510100541 63 9 4.0 11.0 0.00 0.00 0.00 60 1014.6
20260510100035 62 25 4.0 11.0 0.00 0.00 0.00 65 1014.6
20260510095557 61 9 3.0 13.0 0.00 0.00 0.00 63 1014.7
20260510095105 62 68 5.0 13.0 0.00 0.00 0.00 63 1014.7
20260510094608 62 333 7.0 12.0 0.00 0.00 0.00 63 1014.8
20260510094055 62 288 3.0 11.0 0.00 0.00 0.00 63 1014.8
20260510093540 62 281 4.0 11.0 0.00 0.00 0.00 64 1014.9
20260510093030 63 349 3.0 9.0 0.00 0.00 0.00 62 1014.8
20260510092557 62 288 3.0 9.0 0.00 0.00 0.00 62 1014.8
20260510092042 62 33 5.0 9.0 0.00 0.00 0.00 63 1014.8
20260510091552 61 53 5.0 10.0 0.00 0.00 0.00 64 1014.9
20260510091040 61 44 4.0 11.0 0.00 0.00 0.00 64 1014.9
20260510090539 60 338 7.0 11.0 0.00 0.00 0.00 66 1014.9
20260510090035 61 321 5.0 11.0 0.00 0.00 0.00 64 1014.9
20260510085617 61 337 4.0 12.0 0.00 0.00 0.00 64 1014.9
20260510085041 61 332 5.0 9.0 0.00 0.00 0.00 62 1014.9
20260510084542 61 103 4.0 8.0 0.00 0.00 0.00 62 1015.0
20260510084046 60 318 4.0 14.0 0.00 0.00 0.00 63 1015.0
20260510083552 60 26 7.0 14.0 0.00 0.00 0.00 61 1015.1
20260510083034 60 19 6.0 12.0 0.00 0.00 0.00 62 1015.2
20260510082621 59 90 7.0 14.0 0.00 0.00 0.00 61 1015.3
20260510082040 59 25 6.0 14.0 0.00 0.00 0.00 60 1015.3
20260510081544 59 14 4.0 10.0 0.00 0.00 0.00 63 1015.3
20260510081030 58 40 6.0 11.0 0.00 0.00 0.00 61 1015.3
20260510080547 58 334 6.0 13.0 0.00 0.00 0.00 60 1015.4
20260510080041 57 17 6.0 14.0 0.00 0.00 0.00 65 1015.3
20260510075549 57 53 6.0 14.0 0.00 0.00 0.00 64 1015.3
20260510075045 57 39 5.0 10.0 0.00 0.00 0.00 69 1015.4
20260510074535 56 25 4.0 9.0 0.00 0.00 0.00 68 1015.4
20260510074043 56 48 5.0 9.0 0.00 0.00 0.00 70 1015.4
20260510073539 56 5 5.0 9.0 0.00 0.00 0.00 72 1015.4
20260510073030 55 22 4.0 9.0 0.00 0.00 0.00 73 1015.4
20260510072530 55 360 4.0 12.0 0.00 0.00 0.00 73 1015.4
20260510072043 55 351 5.0 12.0 0.00 0.00 0.00 76 1015.4
20260510071606 55 15 5.0 9.0 0.00 0.00 0.00 78 1015.5
20260510071034 54 9 3.0 7.0 0.00 0.00 0.00 80 1015.4
20260510070542 54 15 3.0 7.0 0.00 0.00 0.00 80 1015.4
20260510070057 54 30 3.0 8.0 0.00 0.00 0.00 81 1015.4
20260510065547 53 331 3.0 8.0 0.00 0.00 0.00 82 1015.4
20260510065123 53 5 3.0 7.0 0.00 0.00 0.00 83 1015.4
20260510064545 53 355 3.0 8.0 0.00 0.00 0.00 84 1015.4
20260510064037 52 5 4.0 8.0 0.00 0.00 0.00 85 1015.4
20260510063549 52 348 4.0 9.0 0.00 0.00 0.00 85 1015.4
20260510063033 52 348 4.0 9.0 0.00 0.00 0.00 86 1015.4
20260510062535 51 59 3.0 6.0 0.00 0.00 0.00 87 1015.4
20260510062035 51 343 2.0 5.0 0.00 0.00 0.00 87 1015.5
20260510061605 51 360 1.0 7.0 0.00 0.00 0.00 88 1015.5
20260510061024 50 296 3.0 7.0 0.00 0.00 0.00 88 1015.4
20260510060540 50 22 3.0 7.0 0.00 0.00 0.00 89 1015.5
20260510060056 50 335 3.0 5.0 0.00 0.00 0.00 89 1015.5
20260510055540 49 9 3.0 5.0 0.00 0.00 0.00 89 1015.5
20260510055034 49 44 2.0 5.0 0.00 0.00 0.00 90 1015.5
20260510054555 49 13 1.0 4.0 0.00 0.00 0.00 90 1015.5
20260510054054 48 350 1.0 4.0 0.00 0.00 0.00 90 1015.6
20260510053547 48 5 2.0 3.0 0.00 0.00 0.00 90 1015.6
20260510053045 48 25 1.0 4.0 0.00 0.00 0.00 90 1015.5
20260510052548 48 15 1.0 4.0 0.00 0.00 0.00 91 1015.6
20260510052041 48 14 2.0 4.0 0.00 0.00 0.00 90 1015.5
20260510051530 47 348 1.0 3.0 0.00 0.00 0.00 91 1015.5
20260510051032 47 5 1.0 4.0 0.00 0.00 0.00 91 1015.5
20260510050600 47 11 1.0 4.0 0.00 0.00 0.00 91 1015.5
20260510050034 47 5 1.0 3.0 0.00 0.00 0.00 91 1015.4
20260510045541 47 355 1.0 3.0 0.00 0.00 0.00 91 1015.4
20260510045035 47 355 0.0 3.0 0.00 0.00 0.00 91 1015.5
20260510044625 47 338 1.0 3.0 0.00 0.00 0.00 91 1015.4
20260510044058 47 350 0.0 2.0 0.00 0.00 0.00 91 1015.5
20260510043613 47 343 0.0 2.0 0.00 0.00 0.00 91 1015.5
20260510043029 47 355 1.0 4.0 0.00 0.00 0.00 91 1015.4
20260510042600 47 346 0.0 4.0 0.00 0.00 0.00 91 1015.4
20260510042041 47 5 2.0 4.0 0.00 0.00 0.00 91 1015.4
20260510041535 47 355 1.0 5.0 0.00 0.00 0.00 91 1015.3
20260510041040 47 340 2.0 7.0 0.00 0.00 0.00 91 1015.3
20260510040548 47 326 3.0 7.0 0.00 0.00 0.00 91 1015.3
20260510040036 47 11 2.0 5.0 0.00 0.00 0.00 91 1015.2
20260510035531 47 5 3.0 5.0 0.00 0.00 0.00 91 1015.2
20260510035037 47 360 1.0 6.0 0.00 0.00 0.00 91 1015.3
20260510034549 47 351 2.0 6.0 0.00 0.00 0.00 91 1015.3
20260510034030 47 332 1.0 5.0 0.00 0.00 0.00 91 1015.3
20260510033537 47 347 2.0 5.0 0.00 0.00 0.00 91 1015.4
20260510033039 47 13 1.0 4.0 0.00 0.00 0.00 91 1015.4
20260510032532 47 326 2.0 4.0 0.00 0.00 0.00 90 1015.4
20260510032029 48 323 1.0 3.0 0.00 0.00 0.00 90 1015.4
20260510031554 48 329 1.0 3.0 0.00 0.00 0.00 90 1015.5
20260510031036 48 342 2.0 3.0 0.00 0.00 0.00 90 1015.5
20260510030555 48 341 1.0 4.0 0.00 0.00 0.00 90 1015.5
20260510030038 48 351 2.0 5.0 0.00 0.00 0.00 90 1015.6
20260510025534 48 24 2.0 5.0 0.00 0.00 0.00 90 1015.6
20260510025037 48 342 2.0 4.0 0.00 0.00 0.00 90 1015.7
20260510024603 48 346 1.0 3.0 0.00 0.00 0.00 90 1015.8
20260510024035 48 342 1.0 3.0 0.00 0.00 0.00 90 1015.8
20260510023549 48 323 1.0 3.0 0.00 0.00 0.00 89 1015.8
20260510023030 48 334 1.0 3.0 0.00 0.00 0.00 89 1015.8
20260510022542 48 313 1.0 4.0 0.00 0.00 0.00 89 1015.7
20260510022036 48 304 1.0 4.0 0.00 0.00 0.00 89 1015.7
20260510021549 48 350 0.0 3.0 0.00 0.00 0.00 89 1015.7
20260510021052 49 355 1.0 4.0 0.00 0.00 0.00 89 1015.7
20260510020558 49 355 1.0 4.0 0.00 0.00 0.00 89 1015.7
20260510020028 49 332 1.0 5.0 0.00 0.00 0.00 88 1015.7
20260510015544 49 355 1.0 5.0 0.00 0.00 0.00 88 1015.7
20260510015104 49 360 2.0 4.0 0.00 0.00 0.00 88 1015.8
20260510014559 49 11 1.0 4.0 0.00 0.00 0.00 88 1015.8
20260510014051 49 14 2.0 4.0 0.00 0.00 0.00 88 1015.9
20260510013550 49 336 1.0 4.0 0.00 0.00 0.00 88 1015.9
20260510013059 49 347 1.0 3.0 0.00 0.00 0.00 88 1015.8
20260510012544 49 338 1.0 3.0 0.00 0.00 0.00 88 1015.8
20260510012037 49 351 1.0 4.0 0.00 0.00 0.00 88 1015.9
20260510011603 49 339 1.0 4.0 0.00 0.00 0.00 88 1015.8
20260510011042 49 329 1.0 3.0 0.00 0.00 0.00 88 1015.8
20260510010555 49 5 2.0 3.0 0.00 0.00 0.00 88 1015.8
20260510010053 49 17 1.0 3.0 0.00 0.00 0.00 88 1015.8
20260510005539 50 355 1.0 3.0 0.00 0.00 0.00 88 1015.9
20260510005103 50 350 1.0 3.0 0.00 0.00 0.00 88 1015.9
20260510004543 50 349 1.0 3.0 0.00 0.00 0.00 88 1016.0
20260510004025 50 21 1.0 3.0 0.00 0.00 0.00 87 1016.0
20260510003540 50 5 1.0 2.0 0.00 0.00 0.00 87 1016.0
20260510003059 50 349 1.0 4.0 0.00 0.00 0.00 87 1016.0
20260510002626 50 324 2.0 4.0 0.00 0.00 0.00 87 1016.1
20260510002040 50 5 1.0 3.0 0.00 0.00 0.00 87 1016.1
20260510001553 50 360 1.0 3.0 0.00 0.00 0.00 87 1016.1
20260510001042 50 13 1.0 3.0 0.00 0.00 0.00 86 1016.1
20260510000537 50 5 1.0 4.0 0.00 0.00 0.00 86 1016.1
20260510000035 50 342 1.0 4.0 0.00 0.00 0.00 86 1016.1
20260509235555 50 325 2.0 6.0 0.00 0.00 0.00 86 1016.2
20260509235035 50 360 1.0 6.0 0.00 0.00 0.00 87 1016.2
20260509234537 51 19 1.0 3.0 0.00 0.00 0.00 86 1016.2
20260509234031 51 18 1.0 3.0 0.00 0.00 0.00 86 1016.2
20260509233544 51 342 1.0 4.0 0.00 0.00 0.00 86 1016.2
20260509233055 51 346 2.0 4.0 0.00 0.00 0.00 86 1016.1
20260509232533 51 11 1.0 4.0 0.00 0.00 0.00 86 1016.1
20260509232109 51 336 0.0 4.0 0.00 0.00 0.00 86 1016.2
20260509231547 51 344 1.0 3.0 0.00 0.00 0.00 86 1016.2
20260509231026 51 360 1.0 3.0 0.00 0.00 0.00 86 1016.2
20260509230547 51 350 1.0 3.0 0.00 0.00 0.00 86 1016.3
20260509230032 51 350 1.0 3.0 0.00 0.00 0.00 85 1016.3
20260509225608 51 319 0.0 3.0 0.00 0.00 0.00 85 1016.4
20260509225037 51 355 0.0 3.0 0.00 0.00 0.00 84 1016.4
20260509224603 51 343 0.0 4.0 0.00 0.00 0.00 84 1016.3
20260509224040 51 345 1.0 3.0 0.00 0.00 0.00 84 1016.4
20260509223602 51 347 1.0 3.0 0.00 0.00 0.00 84 1016.4
20260509223047 51 360 1.0 3.0 0.00 0.00 0.00 83 1016.3
20260509222605 51 5 1.0 3.0 0.00 0.00 0.00 83 1016.3
20260509222041 52 18 1.0 3.0 0.00 0.00 0.00 83 1016.3
20260509221537 52 344 1.0 3.0 0.00 0.00 0.00 82 1016.4
20260509221047 52 360 1.0 3.0 0.00 0.00 0.00 82 1016.4
20260509220532 52 5 1.0 3.0 0.00 0.00 0.00 81 1016.4
20260509220042 52 360 1.0 3.0 0.00 0.00 0.00 81 1016.4
20260509215543 52 20 1.0 3.0 0.00 0.00 0.00 81 1016.3
20260509215059 52 17 1.0 3.0 0.00 0.00 0.00 81 1016.3
20260509214553 53 20 1.0 3.0 0.00 0.00 0.00 80 1016.3
20260509214036 53 355 1.0 2.0 0.00 0.00 0.00 80 1016.4
20260509213605 53 317 1.0 2.0 0.00 0.00 0.00 80 1016.4
20260509213029 53 350 1.0 4.0 0.00 0.00 0.00 80 1016.4
20260509212625 53 9 1.0 4.0 0.00 0.00 0.00 79 1016.5
20260509212052 54 346 2.0 4.0 0.00 0.00 0.00 78 1016.5
20260509211530 54 19 2.0 4.0 0.00 0.00 0.00 77 1016.5
20260509211029 54 9 1.0 5.0 0.00 0.00 0.00 77 1016.5
20260509210550 54 16 2.0 7.0 0.00 0.00 0.00 76 1016.4
20260509210046 54 9 2.0 9.0 0.00 0.00 0.00 76 1016.4
20260509205611 54 36 3.0 6.0 0.00 0.00 0.00 76 1016.3
20260509205039 54 19 1.0 4.0 0.00 0.00 0.00 76 1016.4
20260509204539 54 9 2.0 4.0 0.00 0.00 0.00 76 1016.3
20260509204045 55 28 1.0 4.0 0.00 0.00 0.00 75 1016.4
20260509203552 55 28 1.0 6.0 0.00 0.00 0.00 75 1016.3
20260509203026 55 22 2.0 6.0 0.00 0.00 0.00 74 1016.3
20260509202531 55 9 2.0 4.0 0.00 0.00 0.00 73 1016.3
20260509202101 56 5 2.0 4.0 0.00 0.00 0.00 72 1016.4
20260509201555 56 360 2.0 5.0 0.00 0.00 0.00 71 1016.4
20260509201037 56 355 2.0 5.0 0.00 0.00 0.00 71 1016.5
20260509200551 56 20 1.0 4.0 0.00 0.00 0.00 71 1016.5
20260509200036 56 14 1.0 4.0 0.00 0.00 0.00 71 1016.5
20260509195556 56 42 0.0 4.0 0.00 0.00 0.00 70 1016.4
20260509195026 56 30 1.0 4.0 0.00 0.00 0.00 69 1016.4
20260509194546 57 360 0.0 3.0 0.00 0.00 0.00 69 1016.4
20260509194035 57 32 1.0 4.0 0.00 0.00 0.00 67 1016.4
20260509193555 57 26 2.0 4.0 0.00 0.00 0.00 67 1016.3
20260509193059 57 64 2.0 4.0 0.00 0.00 0.00 67 1016.3
20260509192556 58 27 1.0 5.0 0.00 0.00 0.00 67 1016.2
20260509192041 58 53 1.0 5.0 0.00 0.00 0.00 66 1016.2
20260509191552 58 64 2.0 5.0 0.00 0.00 0.00 65 1016.1
20260509191056 59 35 2.0 4.0 0.00 0.00 0.00 65 1016.0
20260509190533 59 24 2.0 6.0 0.00 0.00 0.00 64 1016.0
20260509190057 59 50 1.0 4.0 0.00 0.00 0.00 64 1016.0
20260509185543 59 42 1.0 4.0 0.00 0.00 0.00 63 1016.0
20260509185030 60 13 2.0 7.0 0.00 0.00 0.00 62 1016.0
20260509184552 60 34 2.0 7.0 0.00 0.00 0.00 61 1015.8
20260509184037 60 360 3.0 6.0 0.00 0.00 0.00 61 1015.9
20260509183544 60 27 2.0 6.0 0.00 0.00 0.00 60 1015.9
20260509183028 61 15 3.0 6.0 0.00 0.00 0.00 60 1015.8
20260509182533 61 30 1.0 5.0 0.00 0.00 0.00 60 1015.9
20260509182032 61 44 1.0 8.0 0.00 0.00 0.00 60 1015.7
20260509181532 61 55 3.0 8.0 0.00 0.00 0.00 60 1015.8
20260509181105 61 11 3.0 6.0 0.00 0.00 0.00 59 1015.7
20260509180542 62 42 2.0 8.0 0.00 0.00 0.00 58 1015.6
20260509180025 62 355 3.0 5.0 0.00 0.00 0.00 58 1015.6
20260509175540 62 47 2.0 7.0 0.00 0.00 0.00 58 1015.7
20260509175029 62 339 3.0 8.0 0.00 0.00 0.00 57 1015.7
20260509174531 62 355 4.0 8.0 0.00 0.00 0.00 56 1015.8
20260509174030 62 29 3.0 7.0 0.00 0.00 0.00 55 1015.8
20260509173554 62 355 2.0 5.0 0.00 0.00 0.00 54 1015.9
20260509173038 63 19 3.0 6.0 0.00 0.00 0.00 53 1015.9
20260509172609 63 26 2.0 6.0 0.00 0.00 0.00 54 1016.0
20260509172037 63 332 3.0 6.0 0.00 0.00 0.00 54 1016.0
20260509171602 63 342 2.0 5.0 0.00 0.00 0.00 54 1016.0
20260509171044 63 325 3.0 6.0 0.00 0.00 0.00 54 1015.9
20260509170607 63 22 1.0 6.0 0.00 0.00 0.00 54 1015.9
20260509170038 63 15 2.0 8.0 0.00 0.00 0.00 53 1016.0
20260509165555 64 32 2.0 8.0 0.00 0.00 0.00 53 1016.0
20260509165036 64 350 3.0 8.0 0.00 0.00 0.00 51 1015.9
20260509164533 64 16 3.0 6.0 0.00 0.00 0.00 52 1015.9
20260509164056 64 290 2.0 6.0 0.00 0.00 0.00 52 1016.0
20260509163556 64 26 2.0 6.0 0.00 0.00 0.00 52 1016.0
20260509163049 65 331 3.0 7.0 0.00 0.00 0.00 51 1015.9
20260509162614 65 348 3.0 7.0 0.00 0.00 0.00 51 1015.9
20260509162050 65 5 1.0 7.0 0.00 0.00 0.00 50 1015.9
20260509161535 65 360 2.0 9.0 0.00 0.00 0.00 51 1015.9
20260509161052 65 22 4.0 9.0 0.00 0.00 0.00 53 1015.9
20260509160542 65 57 2.0 9.0 0.00 0.00 0.00 51 1016.0
20260509160052 64 34 3.0 9.0 0.00 0.00 0.00 52 1015.9
20260509155539 64 350 4.0 8.0 0.00 0.00 0.00 50 1015.9
20260509155026 65 34 3.0 6.0 0.00 0.00 0.00 52 1015.9
20260509154550 65 18 2.0 6.0 0.00 0.00 0.00 49 1015.8
20260509154037 65 351 3.0 6.0 0.00 0.00 0.00 50 1015.8
20260509153547 65 88 2.0 8.0 0.00 0.00 0.00 51 1015.9
20260509153028 65 351 2.0 9.0 0.00 0.00 0.00 49 1015.9
20260509152542 65 11 1.0 9.0 0.00 0.00 0.00 52 1015.9
20260509152028 65 304 2.0 4.0 0.00 0.00 0.00 51 1016.0
20260509151537 65 290 2.0 6.0 0.00 0.00 0.00 50 1016.1
20260509151038 66 331 2.0 6.0 0.00 0.00 0.00 48 1016.1
20260509150548 67 342 2.0 8.0 0.00 0.00 0.00 46 1016.1
20260509150043 67 23 4.0 8.0 0.00 0.00 0.00 47 1016.1
20260509145557 67 62 3.0 8.0 0.00 0.00 0.00 48 1016.2
20260509145046 67 360 3.0 9.0 0.00 0.00 0.00 47 1016.1
20260509144552 67 323 2.0 9.0 0.00 0.00 0.00 47 1016.1
20260509144039 67 346 3.0 9.0 0.00 0.00 0.00 47 1016.0
20260509143543 67 51 2.0 10.0 0.00 0.00 0.00 47 1016.1
20260509143051 67 309 5.0 10.0 0.00 0.00 0.00 46 1016.2
20260509142557 67 343 3.0 8.0 0.00 0.00 0.00 45 1016.2
20260509142036 67 337 3.0 10.0 0.00 0.00 0.00 46 1016.2
20260509141535 68 18 4.0 10.0 0.00 0.00 0.00 45 1016.3
20260509141036 69 41 3.0 12.0 0.00 0.00 0.00 47 1016.4
20260509140541 68 41 7.0 12.0 0.00 0.00 0.00 47 1016.4
20260509140057 69 286 5.0 9.0 0.00 0.00 0.00 46 1016.4
20260509135544 68 355 4.0 8.0 0.00 0.00 0.00 45 1016.5
20260509135043 68 33 1.0 8.0 0.00 0.00 0.00 44 1016.5
20260509134547 68 60 2.0 8.0 0.00 0.00 0.00 42 1016.6
20260509134039 66 78 3.0 6.0 0.00 0.00 0.00 47 1016.6
20260509133553 66 202 1.0 5.0 0.00 0.00 0.00 46 1016.8
20260509133029 66 300 0.0 5.0 0.00 0.00 0.00 45 1016.8
20260509132540 67 5 3.0 5.0 0.00 0.00 0.00 46 1016.9
20260509132029 68 355 1.0 6.0 0.00 0.00 0.00 45 1016.9
20260509131603 69 341 2.0 6.0 0.00 0.00 0.00 43 1017.0
20260509131042 67 24 2.0 6.0 0.00 0.00 0.00 43 1017.0
20260509130546 67 5 2.0 7.0 0.00 0.00 0.00 43 1017.0
20260509130049 68 96 3.0 7.0 0.00 0.00 0.00 45 1017.1
20260509125603 69 44 2.0 6.0 0.00 0.00 0.00 47 1017.1